TimeAST,TemperatureF,Dew PointF,Humidity,Sea Level PressureIn,VisibilityMPH,Wind Direction,Wind SpeedMPH,Gust SpeedMPH,PrecipitationIn,Events,Conditions,WindDirDegrees,DateUTC
12:55 AM,80.6,77.0,89,29.74,-9999.0,Variable,1.2,-,N/A,,Unknown,0,2013-09-13 04:55:00
1:55 AM,-9999,-9999,N/A,29.71,-9999.0,North,2.3,-,N/A,,Unknown,360,2013-09-13 05:55:00
3:55 AM,80.6,78.8,94,29.71,-9999.0,ENE,2.3,-,N/A,,Unknown,70,2013-09-13 07:55:00
4:55 AM,-9999,-9999,N/A,29.71,-9999.0,ENE,1.2,-,N/A,,Unknown,60,2013-09-13 08:55:00
5:55 AM,78.8,77.0,94,29.74,-9999.0,NNE,1.2,-,N/A,,Unknown,30,2013-09-13 09:55:00
7:00 AM,78.8,77.0,94,29.74,-9999.0,NNE,1.2,-,N/A,,Unknown,20,2013-09-13 11:00:00
8:00 AM,84.2,77.0,79,29.77,-9999.0,Variable,1.2,-,N/A,,Unknown,0,2013-09-13 12:00:00
9:00 AM,87.8,77.0,70,29.80,6.2,Variable,3.5,-,N/A,,Scattered Clouds,0,2013-09-13 13:00:00
10:00 AM,86.0,77.0,74,29.80,6.2,SSE,4.6,-,N/A,,Mostly Cloudy,160,2013-09-13 14:00:00
11:00 AM,77.0,77.0,100,29.80,6.2,West,9.2,-,N/A,Rain,Rain,260,2013-09-13 15:00:00
12:00 PM,80.6,78.8,94,29.80,6.2,Variable,2.3,-,N/A,Rain,Rain,0,2013-09-13 16:00:00
1:00 PM,84.2,80.6,89,29.77,6.2,Variable,1.2,-,N/A,,Mostly Cloudy,0,2013-09-13 17:00:00
2:00 PM,86,78,70,29.75,22,SSW,4.6,,,,Partly Cloudy,210,2013-09-13 18:00:00
2:00 PM,86.0,77.0,74,29.74,6.2,SSW,4.6,-,N/A,,Scattered Clouds,210,2013-09-13 18:00:00
2:55 PM,86.0,75.2,70,29.74,-9999.0,East,6.9,-,N/A,,Unknown,100,2013-09-13 18:55:00
4:00 PM,87.8,75.2,66,29.71,6.2,ENE,9.2,-,N/A,,Scattered Clouds,70,2013-09-13 20:00:00
5:00 PM,86.0,75.2,70,29.68,6.2,NE,10.4,-,N/A,,Partly Cloudy,50,2013-09-13 21:00:00
6:00 PM,86.0,77.0,74,29.68,6.2,NNE,9.2,-,N/A,,Partly Cloudy,30,2013-09-13 22:00:00
7:00 PM,84.2,77.0,79,29.71,6.2,NNE,8.1,-,N/A,,Partly Cloudy,30,2013-09-13 23:00:00
8:00 PM,82.4,77.0,84,29.71,6.2,NNE,8.1,-,N/A,,Partly Cloudy,30,2013-09-14 00:00:00
9:00 PM,82.4,77.0,84,29.74,-9999.0,ENE,4.6,-,N/A,,Unknown,60,2013-09-14 01:00:00
10:00 PM,82.4,78.8,89,29.77,-9999.0,ENE,5.8,-,N/A,,Unknown,60,2013-09-14 02:00:00